This is the latest recevied weather packets stored in our database for station/object DG1GMY-13. If no packets are shown the sender has not sent any weather packets the latest 10 day(s).
| Time | Temp. | Humidity | Pressure | Rain* | Wind** | Luminosity | Snow |
|---|---|---|---|---|---|---|---|
| 1777593537 | 9.44° C | 37% | 1026.1 hPa | - | - | - | - |
| 1777591731 | 11.11° C | 32% | 1026 hPa | - | - | - | - |
| 1777589925 | 10° C | 34% | 1025.8 hPa | - | - | - | - |
| 1777588119 | 12.22° C | 30% | 1025.6 hPa | - | - | - | - |
| 1777586313 | 11.67° C | 31% | 1025.6 hPa | - | - | - | - |
| 1777584507 | 13.33° C | 26% | 1025.5 hPa | - | - | - | - |
| 1777582701 | 13.89° C | 26% | 1025.4 hPa | - | - | - | - |
| 1777580895 | 12.22° C | 28% | 1025.2 hPa | - | - | - | - |
| 1777579089 | 14.44° C | 23% | 1024.8 hPa | - | - | - | - |
| 1777577283 | 14.44° C | 23% | 1024.8 hPa | - | - | - | - |
| 1777575477 | 14.44° C | 23% | 1024.5 hPa | - | - | - | - |
| 1777573671 | 15.56° C | 23% | 1024.2 hPa | - | - | - | - |
| 1777571865 | 16.67° C | 21% | 1024.1 hPa | - | - | - | - |
| 1777570059 | 17.22° C | 22% | 1023.9 hPa | - | - | - | - |
| 1777568253 | 17.78° C | 21% | 1024 hPa | - | - | - | - |
| 1777566447 | 17.78° C | 21% | 1024 hPa | - | - | - | - |
| 1777564642 | 18.33° C | 23% | 1023.8 hPa | - | - | - | - |
| 1777562835 | 18.33° C | 23% | 1024 hPa | - | - | - | - |
| 1777561030 | 18.33° C | 22% | 1024.2 hPa | - | - | - | - |
| 1777559224 | 18.33° C | 23% | 1024.3 hPa | - | - | - | - |
| 1777557418 | 18.33° C | 23% | 1024.4 hPa | - | - | - | - |
| 1777555612 | 18.33° C | 24% | 1024.4 hPa | - | - | - | - |
| 1777553806 | 17.22° C | 24% | 1024.5 hPa | - | - | - | - |
| 1777552000 | 17.22° C | 26% | 1024.7 hPa | - | - | - | - |
| 1777550194 | 17.22° C | 26% | 1024.8 hPa | - | - | - | - |
* Rain since midnight (hover to see other rain measurements)
** Current wind speed in m/s (hover to see current wind gust speed)